Terminal Aerodrome Forecast
Issued by NWS Topeka, KS

Home | Current Version | Previous Version | Text Only | Print | Product List | Glossary Off
Versions: 1 2 3 4 5 6 7 8 9 10 11 12 13

049
FTUS43 KTOP 201120
TAFTOP
TAF
KTOP 201120Z 2012/2112 17008KT P6SM FEW050=

USA.gov is the U.S. government's official web portal to all federal, state and local government web resources and services.